Regional Weather Roundup
Issued by NWS

Home | Current Version | Previous Version | Graphics & Text | Print | Product List | Glossary On
Versions: 1 2 3 4 5 6 7 8 9 10 11 12 13 14 15 16 17 18 19 20 21 22 23 24 25 26 27 28 29 30 31 32 33 34 35 36 37 38 39 40 41 42 43 44 45 46 47 48 49 50
863
ASUS45 KSLC 230910
RWRUT

UTAH REGIONAL WEATHER ROUNDUP
NATIONAL WEATHER SERVICE SALT LAKE CITY UT
300 AM MDT MON APR 23 2018

UTZ001>011-023>025-231000-

NORTHERN UTAH

CITY           SKY/WX    TMP DP  RH WIND       PRES   REMARKS
BRIGHAM CITY   CLOUDY    59  31  35 MISG      29.97R
HILL AFB       CLOUDY    59  35  40 W7        29.94F
LOGAN          CLOUDY    54  37  52 N25G31    29.99F
OGDEN          CLOUDY    57  35  43 MISG      29.93F
SALT LAKE CITY CLOUDY    62  38  40 N3        29.91F
TOOELE VALLEY  CLOUDY    55  41  58 NW26G32   29.96R
WENDOVER       CLOUDY    60  33  36 SW8       29.99F
HEBER CITY     PTSUNNY   43  32  65 SW3       29.99S
WEST JORDAN    CLOUDY    60  34  37 NE5       29.93F

$$

UTZ011>015-024>027-231000-

CENTRAL/NORTHEAST UTAH

CITY           SKY/WX    TMP DP  RH WIND       PRES   REMARKS
PROVO AIRPORT  MOCLDY    56  34  43 S7        29.96R
MOAB/CANYONLAN MOCLDY    49  28  44 W3        29.96F
DELTA          PTCLDY    54  30  40 S13       29.96S
PRICE          PTCLDY    49  25  39 NE8       30.03F
ROOSEVELT      CLEAR     43  32  65 W7        30.02S
VERNAL         MOCLDY    56  34  43 SW8       30.00F

$$

UTZ013>016-019>022-027-231000-

SOUTHERN UTAH

CITY           SKY/WX    TMP DP  RH WIND       PRES   REMARKS
BRYCE CANYON   PTCLDY    33  21  61 W8        30.17S WCI  26
CEDAR CITY     CLEAR     49  28  44 SE8       30.04S
MILFORD        CLEAR     52  28  39 W12       30.00R
HANKSVILLE     PTCLDY    52  21  30 CALM      30.00S
BLANDING         N/A     44  21  39 N8        30.14S

$$

REGIONAL REPORTS     COLORADO/ARIZONA

CITY           SKY/WX    TMP DP  RH WIND       PRES   REMARKS
CRAIG, CO      PTCLDY    34  31  88 CALM      30.08S
GRAND JUNCTION CLEAR     53  32  44 E15       30.01S
RIFLE, CO      CLEAR     45  38  76 CALM      30.07F
MONTROSE, CO   CLEAR     46  31  55 SE7       30.09S
CORTEZ, CO     CLEAR     35  22  58 E6        30.11S WCI  30
COLORADO CITY    N/A     43  28  56 SE6       30.08S
PAGE, AZ       CLEAR     59  26  28 SW3       29.99S
GRAND CANYON   CLEAR     32  17  54 CALM      30.16F
KINGMAN, AZ    CLEAR     64  20  18 SE9       29.98F
FLAGSTAFF, AZ  CLEAR     37  16  42 CALM      30.18F

$$

REGIONAL REPORTS    NEVADA/IDAHO/WYOMING

CITY           SKY/WX    TMP DP  RH WIND       PRES   REMARKS
LAS VEGAS, NV  PTCLDY    76  24  14 S10       29.87S
ELY, NY        CLEAR     44  27  51 NW7       30.09R
ELKO, NV       PTCLDY    42  32  67 CALM      30.10R
POCATELLO, ID  LGT RAIN  46  41  82 SE14      30.05F
BURLEY, ID     MOCLDY    46  30  53 W15G22    30.05R
FORT BRIDGER,    N/A     44  26  49 S8        30.06S
EVANSTON, WY   MOCLDY    49  27  42 W9        30.05R
ROCK SPRINGS,  MOCLDY    48  26  42 SW9       30.05R
KEMMERER, WY   PTCLDY    36  27  69 N6        30.04F WCI  31

$$




USA.gov is the U.S. government's official web portal to all federal, state and local government web resources and services.